Torna al catalogo

STARLINK-11400

AttivoComunicazioniVLEO
NORAD 63017·PAYLOAD·🇺🇸 United States

Lanciato Feb 15, 2025 da Cape Canaveral Space Force Station

Loading…

Prossimi Passaggi (prossime 24 ore)

TLE

AggiornatoSource: CelesTrak SupGP

Epoca: Sep 14, 2026, 22:40 UTC

1 63017C 25032N   26257.94493056 -.00033845  00000+0 -26300-3 0  2576
2 63017  43.0000 134.8030 0001632 266.7203 183.7741 15.70844099    12

Traccia STARLINK-11400 in tempo reale con AllMySat

Download on the App Store